Location: �terpigny
(49.8910°N, 2.9249°E)
Time: 06:35:04
(UTC+00:00)

Gurwin Techsat 1B - Pass Details

Date: 07 July 2022
Orbit: 812 x 813 km, 98.8° (Epoch: 14 August)

Event Time Altitude Azimuth Distance (km) Brightness Sun altitude
Rises 01:21:23 0° 25° (NNE) 3,348 13.7 -14.9°
Reaches altitude 10° 01:24:13 10° 39° (NE) 2,411 12.3 -14.7°
Maximum altitude 01:28:26 23° 92° (E) 1,660 10.5 -14.5°
Drops below altitude 10° 01:32:36 10° 144° (SE) 2,397 10.8 -14.2°
Enters shadow 01:33:56 - 152° (SSE) 2,820 11.1 -14.1°
